OneWeb SL0150

operational
NORAD ID: 48047 Int'l Des: 2021-025 Owner: ONEWEBN Country: UK Constellation: oneweb
LEOCIRCULARPOLARONEWEB_TYPE

About OneWeb SL0150

Description loading...

Live Position

Loading 3D Globe...

Upcoming Passes

Altitude History

Altitude vs Time

uPlot chart will show altitude changes over time

Two-Line Element Set

1 48047U 21025F 25304.18923825 -.00000140 00000-0 -41739-3 0 9999
2 48047 87.9035 5.7131 0001719 92.6579 267.4747 13.13471324223485
Epoch: Oct 31, 2025 • Age: 11 hours

Current Status

Altitude 1217.8 km
Velocity 7.25 km/s
Sub-Earth Point 54.88°N, 91.55°E
Launch Date Mar 25, 2021
Age 4.6 years
Type internet

Technical Details

Classification Payload
Mass 148.00 kg
Dry Mass 140.00 kg
Total Mass 148.00 kg
Length 1.30 m
Diameter 1.00 m
Span 5.00 m
Shape Trapezoid+2 pan
Manufacturer ONEWUS
Bus Type ARROW
Phase Status In Orbit
Owner/State ONEWEBN/UK

Large Constellations

Loading constellations...